Location: Atlantic Beach
(40.5890°N, 73.7290°W)
Time: 05:07:18
(UTC+00:00)

N. Korean satellite - Pass Details

Date: 26 January 2021
Orbit: 451 x 502 km, 97.2° (Epoch: 06 March)

Event Time Altitude Azimuth Distance (km) Brightness Sun altitude
Rises 10:34:07 0° 7° (N) 2,501 10.2 -18.2°
Reaches altitude 10° 10:36:12 10° 4° (N) 1,613 9.1 -17.8°
Maximum altitude 10:39:36 60° 285° (WNW) 530 6.4 -17.2°
Drops below altitude 10° 10:42:57 10° 204° (SSW) 1,583 9.0 -16.5°
Sets 10:44:58 0° 201° (SSW) 2,447 10.0 -16.1°
